Location: Newark
(40.2370°N, 1.4081°W)
Time: 10:36:44
(UTC+00:00)

ISS - Visible Passes

Search period start: 19 March 2019 00:00
Search period end: 29 March 2019 00:00
Orbit: 406 x 411 km, 51.6° (Epoch: 19 March)

Date Brightness Start Highest point End Pass type
(mag) Time Alt. Az. Time Alt. Az. Time Alt. Az.
19 Mar -1.4 19:31:13 10° S 19:31:39 12° SSE 19:31:39 12° SSE visible
20 Mar -1.9 20:15:19 10° SW 20:16:46 24° SW 20:16:46 24° SW visible
21 Mar -3.4 19:24:30 10° SSW 19:27:38 42° SE 19:28:51 28° E visible
21 Mar -0.4 21:01:28 10° W 21:01:39 11° W 21:01:39 11° W visible
22 Mar -2.7 20:10:00 10° WSW 20:13:07 40° NNW 20:13:30 38° NNW visible
23 Mar -3.6 19:18:43 10° WSW 19:22:00 71° NW 19:25:07 11° NE visible
23 Mar -0.6 20:56:49 10° WNW 20:57:54 14° NW 20:57:54 14° NW visible
24 Mar -1.5 20:05:05 10° WNW 20:07:44 22° NNW 20:09:20 16° NNE visible
25 Mar -2.1 19:13:29 10° W 19:16:29 32° NNW 19:19:31 10° NE visible
25 Mar -0.7 20:52:18 10° NW 20:53:22 12° NNW 20:53:22 12° NNW visible
26 Mar -1.0 20:00:27 10° NW 20:02:27 15° NNW 20:04:27 10° NNE visible
27 Mar -1.3 19:08:38 10° WNW 19:11:05 19° NNW 19:13:33 10° NNE visible
27 Mar -0.7 20:47:28 10° NNW 20:48:18 11° N 20:48:18 11° N visible
28 Mar -1.0 19:55:50 10° NNW 19:57:12 12° N 19:58:34 10° NNE visible
